Regional Weather Roundup
Issued by NWS

Home | Current Version | Previous Version | Graphics & Text | Print | Product List | Glossary On
Versions: 1 2 3 4 5 6 7 8 9 10 11 12 13 14 15 16 17 18 19 20 21 22 23 24 25 26 27 28 29 30 31 32 33 34 35 36 37 38 39 40 41 42 43 44 45 46 47 48 49 50
000
ASUS43 KMKX 230721
RWRWI

WISCONSIN REGIONAL WEATHER ROUNDUP
NATIONAL WEATHER SERVICE MILWAUKEE/SULLIVAN WI
200 AM CDT TUE MAY 23 2017

NOTE: "FAIR" INDICATES FEW OR NO CLOUDS BELOW 12,000 FEET WITH NO
SIGNIFICANT WEATHER AND/OR OBSTRUCTIONS TO VISIBILITY.

WIZ001-002-006>008-014>016-023>028-230800-
NORTHWEST WISCONSIN

CITY           SKY/WX    TMP DP  RH WIND       PRES   REMARKS
SUPERIOR ARPT  NOT AVBL
ASHLAND        CLOUDY    47  46  97 CALM      29.82F
HAYWARD        FOG       40  38  93 CALM      29.81F VSB 1/2
SIREN          CLOUDY    42  41  95 CALM      29.83S
CUMBERLAND     CLOUDY    45  43  93 N3        29.81F
RICE LAKE      CLOUDY    47  46  93 CALM      29.83S
CHETEK         CLOUDY    47  46  99 CALM      29.82S
LADYSMITH      PTCLDY    44  43  97 CALM      29.83S
EAU CLAIRE     CLOUDY    51  47  86 CALM      29.80R
MENOMONIE      DRIZZLE   52  47  86 N3        29.80F
NEW RICHMOND   RAIN      49  46  87 CALM      29.82S
OSCEOLA        LGT RAIN  49  49 100 CALM      29.84F
$$

WIZ003>005-009-010-017-018-230800-
NORTH CENTRAL WISCONSIN

CITY           SKY/WX    TMP DP  RH WIND       PRES   REMARKS
MANITOWISH WTR FOG       39  39 100 CALM      29.82F VSB 1/2
ARBOR VITAE    MOCLDY    39  38  94 CALM      29.81F
WOODRUFF       MOCLDY    39  38  94 CALM      29.81F
RHINELANDER    MOCLDY    41  39  93 CALM      29.82F
EAGLE RIVER    FOG       42  42 100 CALM      29.81F VSB 1
LAND O LAKES   MOCLDY    44  44  99 CALM      29.83F
PHILLIPS       CLOUDY    37  37 100 CALM      29.80F FOG
TOMAHAWK       MOCLDY    39  38  97 CALM      29.82S
MEDFORD        MOCLDY    45  42  90 E5        29.80F
MERRILL        CLOUDY    43  43 100 CALM      29.83S
$$

WIZ029-030-035-036-043>047-230800-
CENTRAL WISCONSIN

CITY           SKY/WX    TMP DP  RH WIND       PRES   REMARKS
WAUSAU         CLOUDY    49  42  77 E5        29.80S
MOSINEE        CLOUDY    48  43  81 E6        29.82S
MARSHFIELD     LGT RAIN  50  44  80 SE6       29.81R
STEVENS POINT  CLOUDY    50  44  78 CALM      29.81S
WAUPACA        CLOUDY    55  47  72 NE8       29.81S
WAUTOMA        LGT RAIN  55  52  88 SW6       29.80F
WISC RAPIDS    RAIN      51  50  96 SE5       29.83R FOG
CAMP DOUGLAS   CLOUDY    52  52  99 E8        29.78F
$$

WIZ011>013-019>022-031-037>040-048>050-230800-
NORTHEAST WISCONSIN

CITY           SKY/WX    TMP DP  RH WIND       PRES   REMARKS
ANTIGO         MOCLDY    45  43  91 E5        29.83S
SHAWANO        PTCLDY    51  46  82 E5        29.83F
OCONTO         PTCLDY    43  42  99 CALM      29.83F
STURGEON BAY   CLEAR     45  44  97 E3        29.84F
GREEN BAY      CLOUDY    50  46  86 E5        29.82F
MANITOWOC      PTCLDY    52  46  80 VRB3      29.83F
APPLETON       CLOUDY    54  41  62 E8        29.80F
CLINTONVILLE   CLOUDY    50  45  81 NE3       29.82F
OSHKOSH        MOCLDY    56  52  86 NE5       29.78F
$$

WIZ032>034-041-042-053>061-230800-
SOUTHWEST WISCONSIN

CITY           SKY/WX    TMP DP  RH WIND       PRES   REMARKS
LA CROSSE      PTCLDY    54  53  97 E3        29.77F FOG
SPARTA         MOCLDY    51  51  99 E3        29.78F
VIROQUA        PTCLDY    51  50  99 MISG      29.78S
BOSCOBEL       CLOUDY    55  52  89 CALM      29.79F
PRAIRIE DU CHI MOCLDY    52  51  96 CALM      29.79S FOG
PLATTEVILLE    MOCLDY    55  55 100 SE6       29.80F
$$

WIZ056-057-062-063-064-067-068-230800-
SOUTH CENTRAL WISCONSIN

CITY           SKY/WX    TMP DP  RH WIND       PRES   REMARKS
REEDSBURG      CLOUDY    54  54 100 CALM      29.79F
BARABOO/DELLS  CLOUDY    53  51  92 W3        29.79F
LONE ROCK      CLOUDY    54  52  93 SE3       29.78F
MINERAL POINT  PTCLDY    52  52 100 SE5       29.79F
MADISON        CLOUDY    56  54  93 VRB3      29.79F
MIDDLETON      CLOUDY    56  53  90 S5        29.79F
WATERTOWN      CLOUDY    56  56 100 SW5       29.81S
MONROE         CLOUDY    55  54  94 S9        29.80F
JANESVILLE     CLOUDY    57  55  94 S8        29.81F
$$

WIZ051-052-058>065-066-070>072-230800-
SOUTHEAST WISCONSIN

CITY           SKY/WX    TMP DP  RH WIND       PRES   REMARKS
MILWAUKEE      CLOUDY    59  54  83 SW9       29.82F
WAUKESHA       CLOUDY    54  52  94 SW6       29.82F
MILWAUKEE/TIMM   N/A     55  50  82 SW6       29.82F
RACINE         MOCLDY    58  53  84 SW7       29.84F
KENOSHA        MOCLDY    58  53  84 SW12      29.83F
FOND DU LAC    MOCLDY    57  52  83 S7        29.79F
SHEBOYGAN      MOCLDY    53  52  96 NE3       29.81F
WEST BEND      CLOUDY    54  54 100 S3        29.81F
JUNEAU         DRIZZLE   56  54  94 SW8       29.82S
$$

LSZ147-162-230800-
LAKE SUPERIOR

STATION/POSITION TIME  TEMP    WIND        PRES    WAVE
                       AIR SEA DIR/SP/G            HT/PER
                 (UTC) (F)     (DEG/KT/KT) (MB)    (FT/S)
W MID LAKE BUOY  0650   40 37  260/  4/  4 1010.3R   1
DEVILS ISLAND    0700   45     260/  5/  6 1010.2S
PORT WING        0630   46      CALM  /  3 1010.2S
SAXON HARBOR     0640   48     190/  3/  4 1009.8S
$$

LMZ867-665-643>646-230800-
LAKE MICHIGAN

STATION/POSITION TIME  TEMP    WIND        PRES    WAVE
                       AIR SEA DIR/SP/G            HT/PER
                 (UTC) (F)     (DEG/KT/KT) (MB)    (FT/S)
CHAMBERS ISLAND  0640   42      CALM  /  1 1010.2F
N MID LAKE BUOY  0650   42 39  210/  4/  6 1011.7F   2/ 6
NORTHPORT PIER   0640   46     200/  3/  5 1010.8S
SISTER BAY       0506   48     170/  6/  8   N/A
KEWAUNEE LAKESHO 0654   50      20/  5/  6 1009.8F
SHEBOYGAN LAKESH 0700   53      20/  4/  5 1009.4F
PORT WASHINGTON  0640   52      CALM  /  1 1010.5F
ATWATER BUOY     0609   57     220/ 10/ 12 1010.2F
MILWAUKEE LAKESH 0700   58     220/  9/ 12   N/A
S MID LAKE BUOY  0650   50 45  230/  8/ 10 1011.0F   2/ 4
KENOSHA   LAKESH 0700   59     210/  5/  9 1010.2
$$

TC  - TEMPERATURE IN CELSIUS
VSB - VISIBILITY IN STATUTE MILES
WCI - WIND CHILL INDEX
HX  - HEAT INDEX





USA.gov is the U.S. government's official web portal to all federal, state and local government web resources and services.